sat.trackr.live / text

‹ back to catalog

AETHER-1

NORAD 58281 · 2023-174AB

PAYLOAD ACTIVE UNKNOWN

§ Identity

Operator
Country
CA
Launch date
2023-11-11
Launch site
AFWTR
Launch vehicle
Mass (kg)
RCS (m²)

External: N2YO · Heavens-Above · Gunter

§ Orbital elements

Epoch: 2026-05-24T23:36:57.048768Z

Period
91.44 min
Inclination
97.3813°
Eccentricity
0.0005647
Mean motion
15.74828130 rev/d
Perigee alt
341.3 km
Apogee alt
348.9 km
Semi-major
6,723.3 km
B*
1.0592e-3
RAAN
237.6860°
Arg perigee
213.5703°
Mean anomaly
146.5205°
Rev number
14,229

§ Raw data

AETHER-11 58281U 23174AB  26144.98399362  .00158450  00000+0  10592-2 0  99982 58281  97.3813 237.6860 0005647 213.5703 146.5205 15.74828130142292

JSON: /api/v1/satellites/58281 · /tle

For live sub-satellite position, see the globe view (requires WebGL).

§ Visibility from observer

Set your observer location to see the next 7 days of passes ≥ 10°. The values pass through the URL so the page stays shareable.

No JS? Fill the form by hand. The geolocation button needs JavaScript.